Preview of NWS' New Version of Forecast
This preview is not operational and should not be used for support decisions.

Regional Weather Roundup (RWR)

Issued by National Weather Service (NWS)

                            
000
ASUS46 KSEW 190210
RWRWA 

WASHINGTON REGIONAL WEATHER ROUNDUP
NATIONAL WEATHER SERVICE SEATTLE WA
700 PM PDT TUE JUN 18 2019

NOTE:"FAIR" INDICATES FEW OR NO CLOUDS BELOW 12,000 FEET WITH NO 
SIGNIFICANT WEATHER AND/OR OBSTRUCTIONS TO VISIBILITY.

WAZ507-509-555>559-190300-
SEATTLE, TACOMA, EVERETT, AND VICINITY
  
CITY           SKY/WX    TMP DP  RH WIND       PRES   REMARKS
EVERETT        CLOUDY    59  51  75 VRB3      30.21F                  
BOEING FIELD   CLOUDY    65  54  67 E3        30.18F                  
RENTON         CLOUDY    64  56  75 VRB3      30.18F                  
SEATAC AIRPORT CLOUDY    65  55  70 E6        30.19S                  
JBLM-MCCHORD   CLOUDY    68  55  62 W8        30.18S                  
PUYALLUP       CLOUDY    66  54  63 VRB7      30.19S                  
BREMERTON      CLOUDY    60  54  80 NE14      30.18F                  
JBLM-FT LEWIS  CLOUDY    68  55  62 S12       30.17S                  
TACOMA NARROWS PTSUNNY   66  48  52 SW9       30.18S                  
$$
 
WAZ001-503-506-510-514-515-190300-
NORTH INTERIOR
  
CITY           SKY/WX    TMP DP  RH WIND       PRES   REMARKS
BELLINGHAM     PTSUNNY   62  50  64 S15G21    30.14F                  
FRIDAY HARBOR  SUNNY     65  46  50 SW9       30.15F                  
EASTSOUND      MOSUNNY   66  52  59 S9        30.12F                  
PORT ANGELES   SUNNY     58  47  66 W16G24    30.20F                  
EDIZ HOOK      FAIR      56  48  74 W26       30.19F                  
PORT TOWNSEND  CLOUDY    63  52  67 MISG      30.18F                  
NAS WHIDBEY    PTSUNNY   61  48  62 SW20      30.22S                  
ARLINGTON      CLOUDY    62  49  62 NW8       30.20F                  
BURLINGTON     SUNNY     64  50  59 SW10G24   30.19S                  
$$
 
WAZ020-022-039-040-504-511-512-190300-
SOUTHWEST INTERIOR
  
CITY           SKY/WX    TMP DP  RH WIND       PRES   REMARKS
SHELTON        SUNNY     66  45  46 SW16G22   30.16S                  
OLYMPIA        SUNNY     65  46  50 SW10      30.19S                  
CHEHALIS       FAIR      64  48  55 SW7G15    30.23R                  
KELSO          MOSUNNY   63  49  60 W12G21    30.24R                  
VANCOUVER      MOSUNNY   68  47  46 NW13G20   30.20S                  
SCAPPOOSE, OR  MOSUNNY   66  47  50 NW9G20    30.21S                  
PORTLAND, OR   MOSUNNY   70  48  45 NW15      30.20S                  
$$
 
WAZ021-516-517-190300-
WASHINGTON COAST
  
CITY           SKY/WX    TMP DP  RH WIND       PRES   REMARKS
FORKS          CLOUDY    58  48  69 W12G21    30.27S                  
HOQUIAM        MOSUNNY   59  50  72 W18G29    30.25S                  
ASTORIA, OR    MOSUNNY   59  48  67 NW15      30.28S                  
$$
 
WAZ019-023-024-040-567>569-190300-
CASCADE MOUNTAINS AND COLUMBIA GORGE
  
CITY           SKY/WX    TMP DP  RH WIND       PRES   REMARKS
STAMPEDE PASS  CLOUDY    50  45  83 VRB7      30.19F                  
TROUTDALE, OR  MOSUNNY   70  49  47 W8        30.18S                  
HOOD RIVER, OR PTCLDY    70  41  35 W14G21    30.11R                  
THE DALLES, OR MOSUNNY   75  43  31 W26G35    30.05R                  
$$

WAZ026-027-041>044-520-521-190300-
EAST SLOPES
  
CITY           SKY/WX    TMP DP  RH WIND       PRES   REMARKS
OMAK           SUNNY     86  35  16 SW6       29.82F                  
WENATCHEE      SUNNY     77  31  18 W20G29    29.94S                  
ELLENSBURG     MOSUNNY   68  42  38 NW28G40   30.05R                  
YAKIMA         MOSUNNY   78  42  27 NW15G25   29.98R                  
SUNNYSIDE ARPT PTCLDY    82  45  26 W13       29.93                   
YAKIMA TC      FAIR      77  31  18 NW20      29.99R                  
$$

WAZ028-034-035-190300-
COLUMBIA BASIN
  
CITY           SKY/WX    TMP DP  RH WIND       PRES   REMARKS
EPHRATA        SUNNY     83  19   9 W21G32    29.88F                  
MOSES LAKE     MOSUNNY   84  46  26 SW12      29.89F                  
PASCO          MOSUNNY   85  49  28 SW17G23   29.91S                  
RICHLAND ARPT  PTCLDY    85  50  29 S10       29.90                   
HERMISTON, OR  MOSUNNY   80  47  31 SW17G25   29.95S                  
$$

WAZ036>038-190300-
NORTHEAST WASHINGTON
  
CITY           SKY/WX    TMP DP  RH WIND       PRES   REMARKS
SPOKANE GEIGER MOSUNNY   80  40  23 SW17      29.93S                  
SPOKANE FELTS  SUNNY     82  41  23 SW10G23   29.91S                  
FAIRCHILD AFB  SUNNY     78  40  26 SW14      29.93F                  
COEURDALENE,ID MOSUNNY   78  46  32 SW14      29.93S                  
DEER PARK      SUNNY     80  42  25 SW16G26   29.90F                  
$$

WAZ029>033-190300-
SOUTHEAST WASHINGTON
  
CITY           SKY/WX    TMP DP  RH WIND       PRES   REMARKS
PULLMAN        SUNNY     75  47  36 W9        30.00F                  
LEWISTON, ID   SUNNY     82  44  26 NW14G20   29.94S                  
WALLA WALLA    SUNNY     81  48  31 SW10      29.95F                  
PENDLETON, OR  SUNNY     79  44  28 W18       29.98S                  
$$